This is the latest recevied weather packets stored in our database for station/object KE5KUL-13. If no packets are shown the sender has not sent any weather packets the latest 10 day(s).
| Time | Temp. | Humidity | Pressure | Rain* | Wind** | Luminosity | Snow |
|---|---|---|---|---|---|---|---|
| 1777401319 | 27.78° C | 27% | 1016.9 hPa | 0 mm | - | - | - |
| 1777400719 | 27.78° C | 29% | 1016.9 hPa | 0 mm | - | - | - |
| 1777400119 | 27.22° C | 30% | 1017.2 hPa | 0 mm | - | - | - |
| 1777399519 | 27.22° C | 30% | 1017.3 hPa | 0 mm | - | - | - |
| 1777398919 | 26.67° C | 31% | 1017.4 hPa | 0 mm | - | - | - |
| 1777398319 | 26.67° C | 34% | 1017.6 hPa | 0 mm | - | - | - |
| 1777397719 | 26.11° C | 35% | 1017.5 hPa | 0 mm | - | - | - |
| 1777397119 | 25.56° C | 36% | 1017.7 hPa | 0 mm | - | - | - |
| 1777396519 | 25° C | 37% | 1017.7 hPa | 0 mm | - | - | - |
| 1777395919 | 25° C | 37% | 1017.6 hPa | 0 mm | - | - | - |
| 1777395318 | 24.44° C | 38% | 1017.6 hPa | 0 mm | - | - | - |
| 1777394718 | 23.89° C | 40% | 1017.5 hPa | 0 mm | - | - | - |
| 1777394119 | 23.33° C | 42% | 1017.6 hPa | 0 mm | - | - | - |
| 1777393519 | 23.33° C | 43% | 1017.6 hPa | 0 mm | - | - | - |
| 1777392919 | 23.33° C | 43% | 1017.5 hPa | 0 mm | - | - | - |
| 1777392319 | 23.33° C | 43% | 1017.5 hPa | 0 mm | - | - | - |
| 1777391718 | 22.78° C | 44% | 1017.4 hPa | 0 mm | - | - | - |
| 1777391118 | 22.22° C | 47% | 1017.3 hPa | 0 mm | - | - | - |
| 1777390519 | 21.67° C | 50% | 1016.8 hPa | 0 mm | - | - | - |
| 1777389919 | 21.11° C | 52% | 1016.8 hPa | 0 mm | - | - | - |
| 1777389318 | 20° C | 54% | 1016.7 hPa | 0 mm | - | - | - |
| 1777388718 | 19.44° C | 56% | 1016.6 hPa | 0 mm | - | - | - |
| 1777388118 | 18.33° C | 59% | 1016.5 hPa | 0 mm | - | - | - |
| 1777387519 | 17.78° C | 60% | 1016.6 hPa | 0 mm | - | - | - |
| 1777386918 | 17.78° C | 60% | 1016.7 hPa | 0 mm | - | - | - |
* Rain latest hour (hover to see other rain measurements)
** Current wind speed in m/s (hover to see current wind gust speed)